User: anonymous   Login
Location: Caltech
(34.1382°N, 118.1253°W)
Time: 01:00:42
(UTC-07:00)
Language:

AO-27 - Orbit

View from above orbital plane
View from above orbital plane
View from above satellite
View from above satellite

Ground track
Ground track

The orbit data is extracted from the following two-line orbital elements,

1 22825U 93061C   17081.84963317  .00000020  00000-0  25310-4 0  9993
2 22825 098.8020 046.4179 0007645 218.1235 141.9406 14.29989536224798
Epoch (UTC): 22 March 2017 20:23:28
Eccentricity: 0.0007645
inclination: 98.8020°
perigee height: 786 km
apogee height: 797 km
right ascension of ascending node: 46.4179°
argument of perigee: 218.1235°
revolutions per day: 14.29989536
mean anomaly at epoch: 141.9406°
orbit number at epoch: 22479

The dashed part of the orbit path shows where the satellite is in the earth's shadow,  

DLR